Wetterdaten: Freitag, 24.05.2013
Datum Zeit Temperatur Luftfeuchte Luftdruck Regen Wind Richtung Richtung Taupunkt Windchill Windben
24.05.2013 00:00 2,3 C 94 % 1011,2 hPa 0,0 l/m 6,1 km/h (2 Bft) S 180 1,4 C 0,1 C 9,8 km/h (2 Bft)
24.05.2013 00:05 2,3 C 94 % 1011,1 hPa 0,0 l/m 6,8 km/h (2 Bft) S 180 1,4 C -0,6 C 4,7 km/h (1 Bft)
24.05.2013 00:10 2,3 C 94 % 1011,1 hPa 0,0 l/m 6,8 km/h (2 Bft) S 180 1,4 C -0,7 C 7,9 km/h (2 Bft)
24.05.2013 00:15 2,3 C 94 % 1011,1 hPa 0,0 l/m 6,3 km/h (2 Bft) S 180 1,4 C -0,1 C 2,4 km/h (1 Bft)
24.05.2013 00:20 2,3 C 94 % 1011,1 hPa 0,0 l/m 6,8 km/h (2 Bft) W-SW 247 1,4 C -0,6 C 11,1 km/h (2 Bft)
24.05.2013 00:25 2,3 C 94 % 1011,4 hPa 0,0 l/m 6,3 km/h (2 Bft) S 180 1,4 C 0,0 C 8,7 km/h (2 Bft)
24.05.2013 00:30 2,4 C 94 % 1011,4 hPa 0,0 l/m 6,3 km/h (2 Bft) S 180 1,5 C 0,2 C 13,4 km/h (3 Bft)
24.05.2013 00:35 2,4 C 94 % 1011,4 hPa 0,0 l/m 5,6 km/h (1 Bft) SO 135 1,5 C 0,3 C 5,1 km/h (1 Bft)
24.05.2013 00:40 2,3 C 94 % 1011,4 hPa 0,0 l/m 4,3 km/h (1 Bft) S 180 1,4 C 0,7 C 7,1 km/h (2 Bft)
24.05.2013 00:45 2,3 C 94 % 1011,4 hPa 0,0 l/m 4,5 km/h (1 Bft) S 180 1,4 C 0,7 C 3,7 km/h (1 Bft)
24.05.2013 00:50 2,3 C 95 % 1011,4 hPa 0,0 l/m 5,0 km/h (1 Bft) SO 135 1,6 C 0,4 C 3,4 km/h (1 Bft)
24.05.2013 00:55 2,3 C 95 % 1011,4 hPa 0,0 l/m 4,2 km/h (1 Bft) O-SO 112 1,6 C 0,8 C 3,4 km/h (1 Bft)
24.05.2013 01:00 2,3 C 95 % 1011,4 hPa 0,0 l/m 4,5 km/h (1 Bft) S-SO 157 1,6 C 0,7 C 7,6 km/h (2 Bft)
24.05.2013 01:05 2,3 C 95 % 1011,4 hPa 0,0 l/m 4,5 km/h (1 Bft) S-SO 157 1,6 C 0,7 C 5,8 km/h (2 Bft)
24.05.2013 01:10 2,3 C 95 % 1011,4 hPa 0,0 l/m 4,0 km/h (1 Bft) S 180 1,6 C 0,9 C 5,0 km/h (1 Bft)
24.05.2013 01:15 2,3 C 95 % 1011,4 hPa 0,0 l/m 3,9 km/h (1 Bft) SO 135 1,6 C 1,0 C 3,7 km/h (1 Bft)
24.05.2013 01:20 2,3 C 95 % 1011,4 hPa 0,0 l/m 3,7 km/h (1 Bft) S 180 1,6 C 1,1 C 3,1 km/h (1 Bft)
24.05.2013 01:25 2,2 C 95 % 1011,2 hPa 0,0 l/m 2,9 km/h (1 Bft) SO 135 1,5 C 1,5 C 1,8 km/h (1 Bft)
24.05.2013 01:30 2,2 C 95 % 1011,2 hPa 0,0 l/m 1,3 km/h (1 Bft) SO 135 1,5 C 1,7 C 3,2 km/h (1 Bft)
24.05.2013 01:35 2,2 C 95 % 1011,2 hPa 0,0 l/m 1,3 km/h (1 Bft) S 180 1,5 C 1,7 C 4,2 km/h (1 Bft)
24.05.2013 01:40 2,3 C 95 % 1011,2 hPa 0,0 l/m 3,2 km/h (1 Bft) SO 135 1,6 C 1,3 C 2,4 km/h (1 Bft)
24.05.2013 01:45 2,3 C 95 % 1011,0 hPa 0,0 l/m 3,2 km/h (1 Bft) N-NW 337 1,6 C 1,3 C 2,9 km/h (1 Bft)
24.05.2013 01:50 2,3 C 96 % 1011,0 hPa 0,0 l/m 2,6 km/h (1 Bft) S-SO 157 1,7 C 1,8 C 6,0 km/h (2 Bft)
24.05.2013 01:55 2,3 C 96 % 1011,0 hPa 0,0 l/m 3,5 km/h (1 Bft) S-SO 157 1,7 C 1,2 C 4,5 km/h (1 Bft)
24.05.2013 02:00 2,3 C 96 % 1011,0 hPa 0,0 l/m 4,2 km/h (1 Bft) S 180 1,7 C 0,8 C 6,4 km/h (2 Bft)
24.05.2013 02:05 2,3 C 96 % 1011,0 hPa 0,0 l/m 3,9 km/h (1 Bft) S 180 1,7 C 1,0 C 2,6 km/h (1 Bft)
24.05.2013 02:10 2,3 C 96 % 1011,0 hPa 0,0 l/m 4,7 km/h (1 Bft) S-SO 157 1,7 C 0,5 C 5,0 km/h (1 Bft)
24.05.2013 02:15 2,2 C 96 % 1011,0 hPa 0,0 l/m 4,0 km/h (1 Bft) S-SO 157 1,6 C 0,8 C 7,2 km/h (2 Bft)
24.05.2013 02:20 2,2 C 96 % 1011,0 hPa 0,0 l/m 3,7 km/h (1 Bft) S-SO 157 1,6 C 1,0 C 2,9 km/h (1 Bft)
24.05.2013 02:25 2,2 C 96 % 1010,9 hPa 0,0 l/m 4,0 km/h (1 Bft) SO 135 1,6 C 0,7 C 5,3 km/h (1 Bft)
24.05.2013 02:30 2,1 C 96 % 1010,9 hPa 0,0 l/m 5,1 km/h (1 Bft) S 180 1,5 C 0,2 C 15,8 km/h (3 Bft)
24.05.2013 02:35 2,1 C 96 % 1010,9 hPa 0,0 l/m 5,3 km/h (1 Bft) S-SO 157 1,5 C 0,1 C 6,3 km/h (2 Bft)
24.05.2013 02:40 2,0 C 96 % 1010,9 hPa 0,0 l/m 4,5 km/h (1 Bft) S-SO 157 1,4 C 0,4 C 5,0 km/h (1 Bft)
24.05.2013 02:45 2,0 C 96 % 1010,8 hPa 0,0 l/m 5,0 km/h (1 Bft) SO 135 1,4 C 0,2 C 8,0 km/h (2 Bft)
24.05.2013 02:50 1,9 C 96 % 1010,8 hPa 0,0 l/m 3,7 km/h (1 Bft) SO 135 1,3 C 0,8 C 4,2 km/h (1 Bft)
24.05.2013 02:55 1,9 C 96 % 1010,8 hPa 0,0 l/m 2,9 km/h (1 Bft) O-SO 112 1,3 C 1,2 C 3,7 km/h (1 Bft)
24.05.2013 03:00 2,0 C 96 % 1010,8 hPa 0,0 l/m 1,9 km/h (1 Bft) S-SO 157 1,4 C 1,5 C 3,9 km/h (1 Bft)
24.05.2013 03:05 2,0 C 96 % 1010,7 hPa 0,0 l/m 2,6 km/h (1 Bft) S-SO 157 1,4 C 1,4 C 8,2 km/h (2 Bft)
24.05.2013 03:10 1,9 C 96 % 1010,7 hPa 0,0 l/m 2,7 km/h (1 Bft) S 180 1,3 C 1,4 C 1,9 km/h (1 Bft)
24.05.2013 03:15 1,9 C 96 % 1010,7 hPa 0,0 l/m 2,6 km/h (1 Bft) SO 135 1,3 C 1,3 C 1,8 km/h (1 Bft)
24.05.2013 03:20 1,8 C 96 % 1010,7 hPa 0,0 l/m 1,8 km/h (1 Bft) SO 135 1,2 C 1,4 C 0,0 km/h (0 Bft)
24.05.2013 03:25 1,8 C 96 % 1010,6 hPa 0,0 l/m 1,0 km/h (0 Bft) O-SO 112 1,2 C 1,3 C 2,9 km/h (1 Bft)
24.05.2013 03:30 1,9 C 96 % 1010,6 hPa 0,0 l/m 1,0 km/h (0 Bft) S 180 1,3 C 1,4 C 0,0 km/h (0 Bft)
24.05.2013 03:35 2,0 C 96 % 1010,6 hPa 0,0 l/m 1,9 km/h (1 Bft) S 180 1,4 C 1,4 C 5,0 km/h (1 Bft)
24.05.2013 03:40 2,0 C 96 % 1010,6 hPa 0,0 l/m 2,6 km/h (1 Bft) S 180 1,4 C 1,4 C 3,1 km/h (1 Bft)
24.05.2013 03:45 2,0 C 96 % 1010,5 hPa 0,0 l/m 2,9 km/h (1 Bft) S 180 1,4 C 1,4 C 2,9 km/h (1 Bft)
24.05.2013 03:50 2,1 C 96 % 1010,5 hPa 0,0 l/m 4,5 km/h (1 Bft) S-SO 157 1,5 C 0,4 C 4,8 km/h (1 Bft)
24.05.2013 03:55 2,0 C 96 % 1010,5 hPa 0,0 l/m 5,1 km/h (1 Bft) S 180 1,4 C 0,2 C 4,0 km/h (1 Bft)
24.05.2013 04:00 2,0 C 96 % 1010,5 hPa 0,0 l/m 5,0 km/h (1 Bft) S 180 1,4 C 0,2 C 7,1 km/h (2 Bft)
24.05.2013 04:05 2,0 C 96 % 1010,3 hPa 0,0 l/m 3,9 km/h (1 Bft) W-SW 247 1,4 C 0,8 C 3,1 km/h (1 Bft)
24.05.2013 04:10 1,8 C 96 % 1010,3 hPa 0,0 l/m 3,1 km/h (1 Bft) S 180 1,2 C 1,1 C 1,8 km/h (1 Bft)
24.05.2013 04:15 1,7 C 96 % 1010,3 hPa 0,0 l/m 2,3 km/h (1 Bft) SO 135 1,1 C 1,4 C 2,4 km/h (1 Bft)
24.05.2013 04:20 1,6 C 96 % 1010,3 hPa 0,0 l/m 1,6 km/h (1 Bft) S 180 1,0 C 1,2 C 6,4 km/h (2 Bft)
24.05.2013 04:25 1,6 C 96 % 1010,1 hPa 0,0 l/m 2,1 km/h (1 Bft) S 180 1,0 C 1,2 C 1,9 km/h (1 Bft)
24.05.2013 04:30 1,6 C 96 % 1010,1 hPa 0,0 l/m 3,1 km/h (1 Bft) S 180 1,0 C 0,8 C 3,2 km/h (1 Bft)
24.05.2013 04:35 1,7 C 96 % 1010,1 hPa 0,0 l/m 3,9 km/h (1 Bft) S 180 1,1 C 0,4 C 8,0 km/h (2 Bft)
24.05.2013 04:40 1,6 C 96 % 1010,1 hPa 0,0 l/m 4,7 km/h (1 Bft) S 180 1,0 C 0,0 C 5,3 km/h (1 Bft)
24.05.2013 04:45 1,6 C 96 % 1009,9 hPa 0,0 l/m 3,5 km/h (1 Bft) SW 225 1,0 C 0,6 C 2,1 km/h (1 Bft)
24.05.2013 04:50 1,6 C 96 % 1009,9 hPa 0,0 l/m 1,8 km/h (1 Bft) O 90 1,0 C 1,2 C 0,0 km/h (0 Bft)
24.05.2013 04:55 1,6 C 96 % 1009,9 hPa 0,0 l/m 1,1 km/h (1 Bft) S 180 1,0 C 1,2 C 0,0 km/h (0 Bft)
24.05.2013 05:00 1,7 C 96 % 1009,9 hPa 0,0 l/m 0,3 km/h (0 Bft) S 180 1,1 C 1,1 C 1,9 km/h (1 Bft)
24.05.2013 05:05 1,7 C 96 % 1010,0 hPa 0,0 l/m 0,8 km/h (0 Bft) SO 135 1,1 C 1,2 C 1,8 km/h (1 Bft)
24.05.2013 05:10 1,7 C 96 % 1010,0 hPa 0,0 l/m 1,1 km/h (1 Bft) O 90 1,1 C 1,2 C 0,0 km/h (0 Bft)
24.05.2013 05:15 1,7 C 96 % 1010,0 hPa 0,0 l/m 0,6 km/h (0 Bft) N 360 1,1 C 1,2 C 0,0 km/h (0 Bft)
24.05.2013 05:20 1,7 C 96 % 1010,0 hPa 0,0 l/m 0,2 km/h (0 Bft) O-SO 112 1,1 C 1,2 C 2,6 km/h (1 Bft)
24.05.2013 05:25 1,7 C 96 % 1010,2 hPa 0,0 l/m 0,3 km/h (0 Bft) O 90 1,1 C 1,2 C 0,0 km/h (0 Bft)
24.05.2013 05:30 1,7 C 96 % 1010,2 hPa 0,0 l/m 0,3 km/h (0 Bft) SO 135 1,1 C 1,2 C 0,0 km/h (0 Bft)
24.05.2013 05:35 1,7 C 96 % 1010,2 hPa 0,0 l/m 0,2 km/h (0 Bft) O 90 1,1 C 1,2 C 0,0 km/h (0 Bft)
24.05.2013 05:40 1,7 C 96 % 1010,2 hPa 0,0 l/m 0,5 km/h (0 Bft) O 90 1,1 C 1,2 C 0,0 km/h (0 Bft)
24.05.2013 05:45 1,7 C 96 % 1010,5 hPa 0,0 l/m 0,5 km/h (0 Bft) O-SO 112 1,1 C 1,2 C 0,0 km/h (0 Bft)
24.05.2013 05:50 1,8 C 96 % 1010,5 hPa 0,0 l/m 0,8 km/h (0 Bft) O 90 1,2 C 1,2 C 1,6 km/h (1 Bft)
24.05.2013 05:55 1,8 C 96 % 1010,5 hPa 0,0 l/m 1,1 km/h (1 Bft) S-SO 157 1,2 C 1,3 C 3,1 km/h (1 Bft)
24.05.2013 06:00 1,8 C 96 % 1010,5 hPa 0,0 l/m 1,3 km/h (1 Bft) SO 135 1,2 C 1,3 C 2,4 km/h (1 Bft)
24.05.2013 06:05 1,8 C 96 % 1010,9 hPa 0,0 l/m 1,6 km/h (1 Bft) SO 135 1,2 C 1,4 C 1,8 km/h (1 Bft)
24.05.2013 06:10 1,9 C 96 % 1010,9 hPa 0,0 l/m 2,3 km/h (1 Bft) S 180 1,3 C 1,5 C 1,8 km/h (1 Bft)
24.05.2013 06:15 1,9 C 97 % 1010,9 hPa 0,0 l/m 2,1 km/h (1 Bft) S-SW 202 1,5 C 1,5 C 2,9 km/h (1 Bft)
24.05.2013 06:20 2,0 C 96 % 1010,9 hPa 0,0 l/m 1,9 km/h (1 Bft) S-SO 157 1,4 C 1,6 C 4,2 km/h (1 Bft)
24.05.2013 06:25 2,0 C 96 % 1011,6 hPa 0,0 l/m 1,8 km/h (1 Bft) SO 135 1,4 C 1,6 C 1,6 km/h (1 Bft)
24.05.2013 06:30 2,0 C 96 % 1011,6 hPa 0,0 l/m 1,8 km/h (1 Bft) S-SO 157 1,4 C 1,6 C 1,8 km/h (1 Bft)
24.05.2013 06:35 2,1 C 96 % 1011,6 hPa 0,0 l/m 1,8 km/h (1 Bft) SO 135 1,5 C 1,6 C 1,8 km/h (1 Bft)
24.05.2013 06:40 2,2 C 96 % 1011,6 hPa 0,0 l/m 2,1 km/h (1 Bft) S-SO 157 1,6 C 1,6 C 3,9 km/h (1 Bft)
24.05.2013 06:45 2,2 C 96 % 1011,6 hPa 0,0 l/m 2,3 km/h (1 Bft) S 180 1,6 C 1,6 C 2,6 km/h (1 Bft)
24.05.2013 06:50 2,3 C 96 % 1011,6 hPa 0,0 l/m 1,9 km/h (1 Bft) SW 225 1,7 C 1,7 C 3,4 km/h (1 Bft)
24.05.2013 06:55 2,4 C 96 % 1011,6 hPa 0,0 l/m 1,8 km/h (1 Bft) S-SW 202 1,8 C 1,8 C 2,6 km/h (1 Bft)
24.05.2013 07:00 2,4 C 96 % 1011,6 hPa 0,0 l/m 1,9 km/h (1 Bft) S 180 1,8 C 1,9 C 3,1 km/h (1 Bft)
24.05.2013 07:05 2,2 C 96 % 1011,6 hPa 0,0 l/m 2,9 km/h (1 Bft) S-SW 202 1,6 C 1,6 C 7,9 km/h (2 Bft)
24.05.2013 07:10 2,1 C 96 % 1011,6 hPa 0,0 l/m 4,8 km/h (1 Bft) S-SW 202 1,5 C 0,3 C 4,2 km/h (1 Bft)
24.05.2013 07:15 2,2 C 96 % 1011,6 hPa 0,0 l/m 5,0 km/h (1 Bft) S 180 1,6 C 0,2 C 5,6 km/h (1 Bft)
24.05.2013 07:20 2,1 C 96 % 1011,6 hPa 0,0 l/m 4,7 km/h (1 Bft) S 180 1,5 C 0,4 C 5,1 km/h (1 Bft)
24.05.2013 07:25 2,1 C 96 % 1011,8 hPa 0,0 l/m 4,5 km/h (1 Bft) SO 135 1,5 C 0,4 C 2,9 km/h (1 Bft)
24.05.2013 07:30 2,2 C 96 % 1011,8 hPa 0,0 l/m 4,7 km/h (1 Bft) S 180 1,6 C 0,4 C 5,8 km/h (2 Bft)
24.05.2013 07:35 2,1 C 96 % 1011,8 hPa 0,7 l/m 5,1 km/h (1 Bft) S 180 1,5 C 0,2 C 4,0 km/h (1 Bft)
24.05.2013 07:40 2,0 C 95 % 1011,8 hPa 0,0 l/m 5,5 km/h (1 Bft) S-SO 157 1,3 C 0,1 C 13,2 km/h (3 Bft)
24.05.2013 07:45 2,1 C 95 % 1011,6 hPa 0,0 l/m 5,1 km/h (1 Bft) S-SO 157 1,4 C 0,1 C 7,7 km/h (2 Bft)
24.05.2013 07:50 2,2 C 95 % 1011,6 hPa 0,0 l/m 5,3 km/h (1 Bft) SO 135 1,5 C 0,1 C 8,0 km/h (2 Bft)
24.05.2013 07:55 2,2 C 95 % 1011,6 hPa 0,0 l/m 5,1 km/h (1 Bft) S 180 1,5 C 0,2 C 6,3 km/h (2 Bft)
24.05.2013 08:00 2,3 C 95 % 1011,6 hPa 0,0 l/m 4,3 km/h (1 Bft) S 180 1,6 C 0,7 C 7,4 km/h (2 Bft)
24.05.2013 08:05 2,3 C 95 % 1011,5 hPa 0,0 l/m 4,2 km/h (1 Bft) S-SW 202 1,6 C 0,7 C 5,5 km/h (1 Bft)
24.05.2013 08:10 2,3 C 95 % 1011,5 hPa 0,0 l/m 4,5 km/h (1 Bft) SO 135 1,6 C 0,7 C 5,1 km/h (1 Bft)
24.05.2013 08:15 2,4 C 95 % 1011,5 hPa 0,0 l/m 3,7 km/h (1 Bft) SO 135 1,7 C 1,1 C 4,3 km/h (1 Bft)
24.05.2013 08:20 2,5 C 95 % 1011,5 hPa 0,0 l/m 3,7 km/h (1 Bft) S 180 1,8 C 1,3 C 5,6 km/h (1 Bft)
24.05.2013 08:25 2,6 C 95 % 1011,5 hPa 0,0 l/m 3,4 km/h (1 Bft) O 90 1,9 C 1,6 C 3,1 km/h (1 Bft)
24.05.2013 08:30 2,7 C 95 % 1011,5 hPa 0,0 l/m 3,9 km/h (1 Bft) S 180 2,0 C 1,6 C 3,5 km/h (1 Bft)
24.05.2013 08:35 2,9 C 94 % 1011,5 hPa 0,0 l/m 3,9 km/h (1 Bft) O-SO 112 2,0 C 1,8 C 4,3 km/h (1 Bft)
24.05.2013 08:40 3,0 C 93 % 1011,5 hPa 0,0 l/m 4,2 km/h (1 Bft) S 180 2,0 C 1,9 C 5,0 km/h (1 Bft)
24.05.2013 08:45 3,2 C 93 % 1011,5 hPa 0,0 l/m 4,2 km/h (1 Bft) SO 135 2,2 C 2,2 C 4,3 km/h (1 Bft)
24.05.2013 08:50 3,4 C 92 % 1011,5 hPa 0,0 l/m 3,9 km/h (1 Bft) S 180 2,2 C 2,7 C 5,6 km/h (1 Bft)
24.05.2013 08:55 3,5 C 92 % 1011,5 hPa 0,0 l/m 4,2 km/h (1 Bft) S 180 2,3 C 2,7 C 4,3 km/h (1 Bft)
24.05.2013 09:00 3,9 C 92 % 1011,5 hPa 0,0 l/m 4,5 km/h (1 Bft) S 180 2,7 C 3,0 C 4,7 km/h (1 Bft)
24.05.2013 09:05 4,2 C 90 % 1011,6 hPa 0,0 l/m 4,0 km/h (1 Bft) N-NW 337 2,7 C 3,7 C 5,0 km/h (1 Bft)
24.05.2013 09:10 5,4 C 88 % 1011,6 hPa 0,0 l/m 3,9 km/h (1 Bft) SO 135 3,6 C 5,1 C 4,7 km/h (1 Bft)
24.05.2013 09:15 5,7 C 86 % 1011,6 hPa 0,0 l/m 3,7 km/h (1 Bft) S-SW 202 3,5 C 5,8 C 3,4 km/h (1 Bft)
24.05.2013 09:20 6,5 C 82 % 1011,6 hPa 0,0 l/m 3,9 km/h (1 Bft) SW 225 3,7 C 6,7 C 4,2 km/h (1 Bft)
24.05.2013 09:25 6,5 C 80 % 1011,8 hPa 0,0 l/m 4,2 km/h (1 Bft) SO 135 3,3 C 6,9 C 8,2 km/h (2 Bft)
24.05.2013 09:30 6,2 C 78 % 1011,8 hPa 0,0 l/m 5,1 km/h (1 Bft) S 180 2,7 C 6,6 C 4,8 km/h (1 Bft)
24.05.2013 09:35 7,3 C 77 % 1011,8 hPa 0,0 l/m 5,3 km/h (1 Bft) W-SW 247 3,5 C 6,7 C 6,1 km/h (2 Bft)
24.05.2013 09:40 6,2 C 76 % 1011,8 hPa 0,0 l/m 4,8 km/h (1 Bft) S 180 2,3 C 7,3 C 4,3 km/h (1 Bft)
24.05.2013 09:45 6,5 C 79 % 1011,8 hPa 0,0 l/m 4,0 km/h (1 Bft) S 180 3,1 C 7,3 C 2,3 km/h (1 Bft)
24.05.2013 09:50 5,7 C 77 % 1011,8 hPa 0,0 l/m 4,2 km/h (1 Bft) W-SW 247 2,0 C 6,9 C 7,6 km/h (2 Bft)
24.05.2013 09:55 5,6 C 78 % 1011,8 hPa 0,0 l/m 5,1 km/h (1 Bft) S 180 2,1 C 6,2 C 7,9 km/h (2 Bft)
24.05.2013 10:00 5,5 C 79 % 1011,8 hPa 0,0 l/m 5,5 km/h (1 Bft) S 180 2,2 C 5,5 C 5,3 km/h (1 Bft)
24.05.2013 10:05 5,5 C 79 % 1011,9 hPa 0,0 l/m 4,7 km/h (1 Bft) W 270 2,2 C 5,7 C 5,1 km/h (1 Bft)
24.05.2013 10:10 5,1 C 79 % 1011,9 hPa 0,0 l/m 3,7 km/h (1 Bft) W-SW 247 1,8 C 5,9 C 4,0 km/h (1 Bft)
24.05.2013 10:15 4,5 C 79 % 1011,9 hPa 0,0 l/m 4,3 km/h (1 Bft) W-NW 292 1,2 C 5,2 C 7,7 km/h (2 Bft)
24.05.2013 10:20 3,4 C 81 % 1011,9 hPa 0,0 l/m 5,6 km/h (1 Bft) S 180 0,5 C 2,9 C 7,7 km/h (2 Bft)
24.05.2013 10:25 3,4 C 83 % 1012,0 hPa 0,0 l/m 5,5 km/h (1 Bft) W-SW 247 0,8 C 2,4 C 4,7 km/h (1 Bft)
24.05.2013 10:30 3,8 C 85 % 1012,0 hPa 0,0 l/m 4,5 km/h (1 Bft) W 270 1,5 C 2,7 C 7,2 km/h (2 Bft)
24.05.2013 10:35 4,3 C 84 % 1012,0 hPa 0,0 l/m 4,5 km/h (1 Bft) W-SW 247 1,8 C 3,0 C 4,8 km/h (1 Bft)
24.05.2013 10:40 4,1 C 83 % 1012,0 hPa 0,0 l/m 4,7 km/h (1 Bft) W-NW 292 1,5 C 3,3 C 3,1 km/h (1 Bft)
24.05.2013 10:45 3,7 C 85 % 1012,2 hPa 0,0 l/m 3,9 km/h (1 Bft) W-SW 247 1,4 C 3,4 C 4,8 km/h (1 Bft)
24.05.2013 10:50 3,6 C 86 % 1012,2 hPa 0,0 l/m 3,1 km/h (1 Bft) W-SW 247 1,5 C 3,3 C 2,9 km/h (1 Bft)
24.05.2013 10:55 3,7 C 87 % 1012,2 hPa 0,0 l/m 3,1 km/h (1 Bft) S 180 1,7 C 3,1 C 2,7 km/h (1 Bft)
24.05.2013 11:00 3,5 C 87 % 1012,2 hPa 0,0 l/m 3,1 km/h (1 Bft) S 180 1,5 C 2,9 C 2,7 km/h (1 Bft)
24.05.2013 11:05 3,4 C 87 % 1012,2 hPa 0,0 l/m 3,5 km/h (1 Bft) W 270 1,4 C 2,7 C 2,7 km/h (1 Bft)
24.05.2013 11:10 2,9 C 86 % 1012,2 hPa 0,0 l/m 4,0 km/h (1 Bft) S 180 0,8 C 2,0 C 4,7 km/h (1 Bft)
24.05.2013 11:15 2,5 C 87 % 1012,2 hPa 0,0 l/m 3,7 km/h (1 Bft) W-SW 247 0,6 C 1,8 C 2,4 km/h (1 Bft)
24.05.2013 11:20 2,5 C 88 % 1012,2 hPa 0,0 l/m 3,1 km/h (1 Bft) SO 135 0,7 C 1,8 C 2,9 km/h (1 Bft)
24.05.2013 11:25 2,4 C 88 % 1012,1 hPa 0,0 l/m 2,3 km/h (1 Bft) NO 45 0,6 C 2,1 C 1,9 km/h (1 Bft)
24.05.2013 11:30 2,9 C 89 % 1012,1 hPa 0,0 l/m 1,4 km/h (1 Bft) O-NO 67 1,3 C 2,5 C 0,0 km/h (0 Bft)
24.05.2013 11:35 3,4 C 89 % 1012,1 hPa 0,0 l/m 0,6 km/h (0 Bft) S 180 1,8 C 3,1 C 1,6 km/h (1 Bft)
24.05.2013 11:40 4,5 C 89 % 1012,1 hPa 0,7 l/m 0,6 km/h (0 Bft) W-NW 292 2,8 C 4,1 C 1,8 km/h (1 Bft)
24.05.2013 11:45 4,9 C 89 % 1012,1 hPa 0,0 l/m 1,8 km/h (1 Bft) S-SO 157 3,2 C 4,7 C 3,9 km/h (1 Bft)
24.05.2013 11:51 5,6 C 86 % 1012,1 hPa 0,0 l/m 1,4 km/h (1 Bft) W-SW 247 3,4 C 6,1 C 1,8 km/h (1 Bft)
24.05.2013 11:55 5,6 C 86 % 1012,1 hPa 0,0 l/m 1,4 km/h (1 Bft) W-SW 247 3,4 C 6,1 C 1,8 km/h (1 Bft)
24.05.2013 12:02 5,8 C 84 % 1012,2 hPa 0,0 l/m 2,1 km/h (1 Bft) SO 135 3,3 C 6,6 C 2,3 km/h (1 Bft)
24.05.2013 12:05 5,8 C 84 % 1012,2 hPa 0,0 l/m 2,1 km/h (1 Bft) SO 135 3,3 C 6,6 C 2,3 km/h (1 Bft)
24.05.2013 12:10 5,8 C 83 % 1012,2 hPa 0,0 l/m 2,4 km/h (1 Bft) S 180 3,1 C 6,5 C 4,3 km/h (1 Bft)
24.05.2013 12:15 6,4 C 82 % 1012,2 hPa 0,0 l/m 2,7 km/h (1 Bft) N-NW 337 3,6 C 6,6 C 0,0 km/h (0 Bft)
24.05.2013 12:21 7,1 C 79 % 1012,3 hPa 0,0 l/m 1,6 km/h (1 Bft) W-SW 247 3,7 C 8,2 C 2,7 km/h (1 Bft)
24.05.2013 12:25 7,1 C 79 % 1012,3 hPa 0,0 l/m 1,6 km/h (1 Bft) W-SW 247 3,7 C 8,2 C 2,7 km/h (1 Bft)
24.05.2013 12:30 5,8 C 81 % 1012,3 hPa 0,0 l/m 1,9 km/h (1 Bft) W-SW 247 2,8 C 7,5 C 2,9 km/h (1 Bft)
24.05.2013 12:35 5,0 C 83 % 1012,3 hPa 0,0 l/m 2,9 km/h (1 Bft) S-SW 202 2,4 C 6,5 C 5,0 km/h (1 Bft)
24.05.2013 12:40 4,3 C 84 % 1012,3 hPa 0,0 l/m 4,3 km/h (1 Bft) S 180 1,8 C 4,4 C 5,5 km/h (1 Bft)
24.05.2013 12:45 4,4 C 84 % 1012,4 hPa 0,0 l/m 4,2 km/h (1 Bft) O-NO 67 1,9 C 4,0 C 4,8 km/h (1 Bft)
24.05.2013 12:50 4,5 C 85 % 1012,4 hPa 0,0 l/m 2,7 km/h (1 Bft) W-NW 292 2,2 C 4,5 C 2,1 km/h (1 Bft)
24.05.2013 12:55 4,7 C 86 % 1012,4 hPa 0,0 l/m 2,1 km/h (1 Bft) S 180 2,6 C 4,6 C 4,5 km/h (1 Bft)
24.05.2013 13:00 5,2 C 86 % 1012,4 hPa 0,0 l/m 2,4 km/h (1 Bft) S 180 3,1 C 4,9 C 4,0 km/h (1 Bft)
24.05.2013 13:05 5,3 C 86 % 1012,2 hPa 0,0 l/m 2,7 km/h (1 Bft) S 180 3,2 C 5,2 C 2,9 km/h (1 Bft)
24.05.2013 13:10 5,4 C 85 % 1012,2 hPa 0,0 l/m 1,8 km/h (1 Bft) SO 135 3,1 C 6,1 C 0,0 km/h (0 Bft)
24.05.2013 13:15 5,6 C 85 % 1012,2 hPa 0,0 l/m 1,3 km/h (1 Bft) S 180 3,3 C 6,7 C 0,0 km/h (0 Bft)
24.05.2013 13:20 5,8 C 81 % 1012,2 hPa 0,0 l/m 1,8 km/h (1 Bft) SO 135 2,8 C 7,3 C 3,9 km/h (1 Bft)
24.05.2013 13:25 5,9 C 81 % 1012,2 hPa 0,0 l/m 2,3 km/h (1 Bft) W 270 2,9 C 7,5 C 5,8 km/h (2 Bft)
24.05.2013 13:30 6,2 C 80 % 1012,2 hPa 0,0 l/m 2,9 km/h (1 Bft) S-SW 202 3,0 C 7,7 C 1,8 km/h (1 Bft)
24.05.2013 13:35 6,6 C 79 % 1012,2 hPa 0,0 l/m 3,4 km/h (1 Bft) SW 225 3,2 C 8,2 C 4,7 km/h (1 Bft)
24.05.2013 13:40 6,8 C 76 % 1012,2 hPa 0,0 l/m 2,6 km/h (1 Bft) SW 225 2,9 C 8,7 C 6,4 km/h (2 Bft)
24.05.2013 13:45 7,1 C 77 % 1012,2 hPa 0,0 l/m 3,2 km/h (1 Bft) W-SW 247 3,3 C 9,1 C 6,4 km/h (2 Bft)
24.05.2013 13:50 7,8 C 77 % 1012,2 hPa 0,0 l/m 4,3 km/h (1 Bft) W 270 4,0 C 9,2 C 5,0 km/h (1 Bft)
24.05.2013 13:55 7,8 C 71 % 1012,2 hPa 0,0 l/m 4,7 km/h (1 Bft) W-SW 247 2,9 C 9,2 C 5,5 km/h (1 Bft)
24.05.2013 14:00 7,3 C 71 % 1012,2 hPa 0,0 l/m 3,5 km/h (1 Bft) NO 45 2,4 C 9,8 C 0,0 km/h (0 Bft)
24.05.2013 14:05 7,7 C 76 % 1012,4 hPa 0,0 l/m 3,2 km/h (1 Bft) SW 225 3,7 C 10,1 C 4,7 km/h (1 Bft)
24.05.2013 14:10 7,6 C 76 % 1012,4 hPa 0,0 l/m 3,2 km/h (1 Bft) S 180 3,6 C 9,7 C 6,6 km/h (2 Bft)
24.05.2013 14:15 7,4 C 73 % 1012,4 hPa 0,0 l/m 4,0 km/h (1 Bft) SW 225 2,9 C 9,5 C 4,8 km/h (1 Bft)
24.05.2013 14:20 7,9 C 74 % 1012,4 hPa 0,0 l/m 3,9 km/h (1 Bft) SO 135 3,6 C 9,8 C 5,3 km/h (1 Bft)
24.05.2013 14:25 8,3 C 76 % 1012,4 hPa 0,0 l/m 3,1 km/h (1 Bft) N-NW 337 4,3 C 10,2 C 3,4 km/h (1 Bft)
24.05.2013 14:30 8,1 C 68 % 1012,4 hPa 0,0 l/m 3,5 km/h (1 Bft) W 270 2,6 C 10,5 C 5,3 km/h (1 Bft)
24.05.2013 14:35 8,3 C 69 % 1012,4 hPa 0,0 l/m 4,0 km/h (1 Bft) NO 45 3,0 C 10,4 C 5,5 km/h (1 Bft)
24.05.2013 14:40 8,0 C 74 % 1012,4 hPa 0,0 l/m 5,0 km/h (1 Bft) SW 225 3,7 C 9,9 C 7,6 km/h (2 Bft)
24.05.2013 14:45 7,3 C 75 % 1012,5 hPa 0,0 l/m 5,5 km/h (1 Bft) S-SW 202 3,2 C 8,7 C 6,3 km/h (2 Bft)
24.05.2013 14:50 6,1 C 75 % 1012,5 hPa 0,0 l/m 6,0 km/h (2 Bft) SW 225 2,0 C 6,9 C 9,0 km/h (2 Bft)
24.05.2013 14:55 4,4 C 77 % 1012,5 hPa 0,0 l/m 6,6 km/h (2 Bft) W-SW 247 0,7 C 4,7 C 6,1 km/h (2 Bft)
24.05.2013 15:00 3,1 C 80 % 1012,5 hPa 0,0 l/m 6,9 km/h (2 Bft) W-SW 247 -0,0 C 1,8 C 4,7 km/h (1 Bft)
24.05.2013 15:05 2,8 C 83 % 1012,6 hPa 0,0 l/m 5,8 km/h (2 Bft) S 180 0,2 C 1,6 C 5,8 km/h (2 Bft)
24.05.2013 15:10 2,6 C 85 % 1012,6 hPa 0,0 l/m 3,5 km/h (1 Bft) SO 135 0,3 C 1,8 C 2,7 km/h (1 Bft)
24.05.2013 15:15 2,6 C 86 % 1012,6 hPa 0,0 l/m 2,9 km/h (1 Bft) S-SO 157 0,5 C 2,1 C 3,4 km/h (1 Bft)
24.05.2013 15:20 2,6 C 88 % 1012,6 hPa 0,0 l/m 3,2 km/h (1 Bft) S-SO 157 0,8 C 1,8 C 3,5 km/h (1 Bft)
24.05.2013 15:25 2,6 C 88 % 1012,5 hPa 0,0 l/m 3,1 km/h (1 Bft) SO 135 0,8 C 1,9 C 4,0 km/h (1 Bft)
24.05.2013 15:30 2,8 C 89 % 1012,5 hPa 0,0 l/m 2,3 km/h (1 Bft) S-SW 202 1,2 C 2,3 C 1,8 km/h (1 Bft)
24.05.2013 15:35 2,9 C 89 % 1012,5 hPa 0,7 l/m 1,8 km/h (1 Bft) NO 45 1,3 C 2,6 C 0,0 km/h (0 Bft)
24.05.2013 15:40 3,3 C 90 % 1012,5 hPa 0,0 l/m 0,6 km/h (0 Bft) W 270 1,8 C 3,1 C 2,6 km/h (1 Bft)
24.05.2013 15:45 3,3 C 90 % 1012,7 hPa 0,0 l/m 1,0 km/h (0 Bft) S 180 1,8 C 3,1 C 2,6 km/h (1 Bft)
24.05.2013 15:50 3,7 C 90 % 1012,7 hPa 0,0 l/m 2,1 km/h (1 Bft) S 180 2,2 C 3,4 C 2,4 km/h (1 Bft)
24.05.2013 15:55 3,8 C 90 % 1012,7 hPa 0,0 l/m 1,8 km/h (1 Bft) S-SO 157 2,3 C 3,6 C 2,9 km/h (1 Bft)
24.05.2013 16:00 4,0 C 91 % 1012,7 hPa 0,7 l/m 1,6 km/h (1 Bft) S-SW 202 2,7 C 3,9 C 2,3 km/h (1 Bft)
24.05.2013 16:05 3,9 C 91 % 1012,6 hPa 0,0 l/m 1,9 km/h (1 Bft) SO 135 2,6 C 4,0 C 1,8 km/h (1 Bft)
24.05.2013 16:10 4,2 C 91 % 1012,6 hPa 0,0 l/m 0,8 km/h (0 Bft) S-SO 157 2,9 C 4,3 C 0,0 km/h (0 Bft)
24.05.2013 16:15 4,2 C 91 % 1012,6 hPa 0,0 l/m 0,2 km/h (0 Bft) N-NW 337 2,9 C 4,5 C 0,0 km/h (0 Bft)
24.05.2013 16:20 4,4 C 91 % 1012,6 hPa 0,0 l/m 0,3 km/h (0 Bft) W-SW 247 3,1 C 4,7 C 2,4 km/h (1 Bft)
24.05.2013 16:25 4,5 C 90 % 1012,7 hPa 0,7 l/m 1,0 km/h (0 Bft) N-NW 337 3,0 C 4,9 C 2,9 km/h (1 Bft)
24.05.2013 16:30 4,4 C 87 % 1012,7 hPa 0,0 l/m 2,4 km/h (1 Bft) W-NW 292 2,4 C 5,0 C 3,7 km/h (1 Bft)
24.05.2013 16:35 4,6 C 88 % 1012,7 hPa 0,0 l/m 2,7 km/h (1 Bft) N 360 2,8 C 4,9 C 0,0 km/h (0 Bft)
24.05.2013 16:40 4,5 C 86 % 1012,7 hPa 0,0 l/m 2,7 km/h (1 Bft) N-NW 337 2,4 C 5,1 C 4,8 km/h (1 Bft)
24.05.2013 16:45 4,6 C 87 % 1012,7 hPa 0,0 l/m 2,4 km/h (1 Bft) O 90 2,6 C 5,1 C 1,6 km/h (1 Bft)
24.05.2013 16:50 4,8 C 87 % 1012,7 hPa 0,0 l/m 2,9 km/h (1 Bft) NO 45 2,8 C 5,4 C 5,3 km/h (1 Bft)
24.05.2013 16:55 4,9 C 85 % 1012,7 hPa 0,0 l/m 3,2 km/h (1 Bft) NO 45 2,6 C 5,3 C 5,0 km/h (1 Bft)
24.05.2013 17:00 5,4 C 86 % 1012,7 hPa 0,0 l/m 3,1 km/h (1 Bft) N-NO 22 3,3 C 6,0 C 4,2 km/h (1 Bft)
24.05.2013 17:05 5,4 C 85 % 1012,8 hPa 0,0 l/m 2,4 km/h (1 Bft) N 360 3,1 C 6,3 C 1,8 km/h (1 Bft)
24.05.2013 17:10 5,6 C 86 % 1012,8 hPa 0,0 l/m 1,9 km/h (1 Bft) O-NO 67 3,4 C 6,6 C 2,9 km/h (1 Bft)
24.05.2013 17:15 5,7 C 85 % 1012,8 hPa 0,0 l/m 1,9 km/h (1 Bft) O 90 3,4 C 6,8 C 2,4 km/h (1 Bft)
24.05.2013 17:20 5,6 C 85 % 1012,8 hPa 0,0 l/m 1,8 km/h (1 Bft) N 360 3,3 C 7,0 C 0,0 km/h (0 Bft)
24.05.2013 17:25 5,9 C 86 % 1012,9 hPa 0,0 l/m 1,1 km/h (1 Bft) O-SO 112 3,7 C 7,1 C 2,1 km/h (1 Bft)
24.05.2013 17:30 5,9 C 86 % 1012,9 hPa 0,0 l/m 1,1 km/h (1 Bft) N-NW 337 3,7 C 7,2 C 0,0 km/h (0 Bft)
24.05.2013 17:35 5,4 C 87 % 1012,9 hPa 0,0 l/m 1,1 km/h (1 Bft) NO 45 3,4 C 7,0 C 0,0 km/h (0 Bft)
24.05.2013 17:40 4,7 C 87 % 1012,9 hPa 0,0 l/m 0,5 km/h (0 Bft) S-SW 202 2,7 C 6,3 C 2,1 km/h (1 Bft)
24.05.2013 17:45 4,2 C 86 % 1013,1 hPa 0,0 l/m 1,9 km/h (1 Bft) W-SW 247 2,1 C 5,6 C 7,4 km/h (2 Bft)
24.05.2013 17:50 3,2 C 86 % 1013,1 hPa 0,0 l/m 5,0 km/h (1 Bft) S 180 1,1 C 2,9 C 7,1 km/h (2 Bft)
24.05.2013 17:55 2,9 C 88 % 1013,1 hPa 0,0 l/m 5,5 km/h (1 Bft) S 180 1,1 C 1,9 C 6,0 km/h (2 Bft)
24.05.2013 18:00 2,7 C 89 % 1013,1 hPa 0,7 l/m 4,7 km/h (1 Bft) W-SW 247 1,1 C 1,4 C 1,6 km/h (1 Bft)
24.05.2013 18:05 2,7 C 90 % 1013,1 hPa 0,0 l/m 4,2 km/h (1 Bft) S 180 1,2 C 1,4 C 4,3 km/h (1 Bft)
24.05.2013 18:10 2,2 C 91 % 1013,1 hPa 0,0 l/m 3,9 km/h (1 Bft) S 180 0,9 C 1,1 C 4,8 km/h (1 Bft)
24.05.2013 18:15 1,7 C 91 % 1013,1 hPa 0,0 l/m 4,0 km/h (1 Bft) N 360 0,4 C 0,6 C 2,4 km/h (1 Bft)
24.05.2013 18:20 1,1 C 91 % 1013,1 hPa 0,0 l/m 2,4 km/h (1 Bft) O 90 -0,2 C 1,0 C 2,6 km/h (1 Bft)
24.05.2013 18:25 1,0 C 91 % 1013,0 hPa 0,0 l/m 1,4 km/h (1 Bft) O 90 -0,3 C 0,7 C 0,0 km/h (0 Bft)
24.05.2013 18:30 1,0 C 92 % 1013,0 hPa 0,0 l/m 1,1 km/h (1 Bft) O 90 -0,2 C 0,6 C 0,0 km/h (0 Bft)
24.05.2013 18:35 1,0 C 92 % 1013,0 hPa 0,0 l/m 0,5 km/h (0 Bft) O 90 -0,2 C 0,6 C 0,0 km/h (0 Bft)
24.05.2013 18:40 1,1 C 93 % 1013,0 hPa 0,0 l/m 0,5 km/h (0 Bft) O 90 0,1 C 0,7 C 1,6 km/h (1 Bft)
24.05.2013 18:45 1,2 C 93 % 1013,0 hPa 0,0 l/m 0,6 km/h (0 Bft) O-NO 67 0,2 C 0,8 C 0,0 km/h (0 Bft)
24.05.2013 18:50 1,3 C 93 % 1013,0 hPa 0,0 l/m 0,6 km/h (0 Bft) O-SO 112 0,3 C 0,9 C 0,0 km/h (0 Bft)
24.05.2013 18:55 1,3 C 93 % 1013,0 hPa 0,0 l/m 0,6 km/h (0 Bft) O 90 0,3 C 1,1 C 2,1 km/h (1 Bft)
24.05.2013 19:00 1,4 C 94 % 1013,0 hPa 0,7 l/m 0,6 km/h (0 Bft) NO 45 0,5 C 1,3 C 0,0 km/h (0 Bft)
24.05.2013 19:05 1,4 C 94 % 1012,9 hPa 0,0 l/m 0,6 km/h (0 Bft) O 90 0,5 C 1,3 C 1,6 km/h (1 Bft)
24.05.2013 19:10 1,5 C 94 % 1012,9 hPa 0,0 l/m 0,6 km/h (0 Bft) O-SO 112 0,6 C 1,5 C 2,6 km/h (1 Bft)
24.05.2013 19:15 1,6 C 94 % 1012,9 hPa 0,0 l/m 0,3 km/h (0 Bft) O 90 0,7 C 1,5 C 0,0 km/h (0 Bft)
24.05.2013 19:20 1,7 C 95 % 1012,9 hPa 0,7 l/m 0,3 km/h (0 Bft) O-NO 67 1,0 C 1,6 C 0,0 km/h (0 Bft)
24.05.2013 19:25 1,7 C 95 % 1012,9 hPa 0,0 l/m 0,3 km/h (0 Bft) O-SO 112 1,0 C 1,6 C 0,0 km/h (0 Bft)
24.05.2013 19:30 1,7 C 95 % 1012,9 hPa 0,0 l/m 0,2 km/h (0 Bft) O 90 1,0 C 1,6 C 0,0 km/h (0 Bft)
24.05.2013 19:35 1,8 C 95 % 1012,9 hPa 0,0 l/m 0,0 km/h (0 Bft) O-NO 67 1,1 C 1,6 C 0,0 km/h (0 Bft)
24.05.2013 19:40 1,9 C 95 % 1012,9 hPa 0,0 l/m 0,0 km/h (0 Bft) S-SO 157 1,2 C 1,6 C 0,0 km/h (0 Bft)
24.05.2013 19:45 1,9 C 95 % 1012,8 hPa 0,0 l/m 0,2 km/h (0 Bft) O-NO 67 1,2 C 1,6 C 0,0 km/h (0 Bft)
24.05.2013 19:50 1,8 C 95 % 1012,8 hPa 0,0 l/m 0,0 km/h (0 Bft) O 90 1,1 C 1,6 C 0,0 km/h (0 Bft)
24.05.2013 19:55 1,8 C 95 % 1012,8 hPa 0,7 l/m 0,0 km/h (0 Bft) O-NO 67 1,1 C 1,6 C 0,0 km/h (0 Bft)
24.05.2013 20:00 1,8 C 95 % 1012,8 hPa 0,0 l/m 0,0 km/h (0 Bft) O-NO 67 1,1 C 1,6 C 0,0 km/h (0 Bft)
24.05.2013 20:05 1,8 C 96 % 1012,9 hPa 0,0 l/m 0,0 km/h (0 Bft) O-SO 112 1,2 C 1,6 C 0,0 km/h (0 Bft)
24.05.2013 20:10 1,7 C 96 % 1012,9 hPa 0,0 l/m 0,3 km/h (0 Bft) O 90 1,1 C 1,5 C 1,8 km/h (1 Bft)
24.05.2013 20:15 1,7 C 96 % 1012,9 hPa 0,0 l/m 0,8 km/h (0 Bft) O 90 1,1 C 1,4 C 2,3 km/h (1 Bft)
24.05.2013 20:20 1,7 C 96 % 1012,9 hPa 0,0 l/m 0,8 km/h (0 Bft) O 90 1,1 C 1,3 C 1,8 km/h (1 Bft)
24.05.2013 20:25 1,6 C 96 % 1013,1 hPa 0,0 l/m 1,1 km/h (1 Bft) NO 45 1,0 C 1,3 C 2,4 km/h (1 Bft)
24.05.2013 20:30 1,5 C 96 % 1013,1 hPa 0,0 l/m 1,8 km/h (1 Bft) NO 45 0,9 C 1,1 C 1,6 km/h (1 Bft)
24.05.2013 20:35 1,5 C 96 % 1013,1 hPa 0,0 l/m 1,9 km/h (1 Bft) O 90 0,9 C 1,1 C 2,1 km/h (1 Bft)
24.05.2013 20:40 1,5 C 96 % 1013,1 hPa 0,7 l/m 0,6 km/h (0 Bft) N-NO 22 0,9 C 1,1 C 0,0 km/h (0 Bft)
24.05.2013 20:45 1,5 C 96 % 1012,6 hPa 0,0 l/m 0,2 km/h (0 Bft) W 270 0,9 C 1,1 C 0,0 km/h (0 Bft)
24.05.2013 20:50 1,6 C 96 % 1012,6 hPa 0,0 l/m 0,2 km/h (0 Bft) W-SW 247 1,0 C 1,1 C 0,0 km/h (0 Bft)
24.05.2013 20:55 1,5 C 96 % 1012,6 hPa 0,0 l/m 0,2 km/h (0 Bft) O 90 0,9 C 1,1 C 0,0 km/h (0 Bft)
24.05.2013 21:00 1,5 C 96 % 1012,6 hPa 0,0 l/m 0,0 km/h (0 Bft) O-NO 67 0,9 C 1,1 C 0,0 km/h (0 Bft)
24.05.2013 21:05 1,5 C 96 % 1012,5 hPa 0,0 l/m 0,0 km/h (0 Bft) O 90 0,9 C 1,1 C 0,0 km/h (0 Bft)
24.05.2013 21:10 1,5 C 96 % 1012,5 hPa 0,0 l/m 0,0 km/h (0 Bft) O-NO 67 0,9 C 1,1 C 0,0 km/h (0 Bft)
24.05.2013 21:15 1,5 C 96 % 1012,5 hPa 0,0 l/m 0,0 km/h (0 Bft) NO 45 0,9 C 1,1 C 0,0 km/h (0 Bft)
24.05.2013 21:20 1,5 C 96 % 1012,5 hPa 0,0 l/m 0,0 km/h (0 Bft) O-NO 67 0,9 C 1,0 C 0,0 km/h (0 Bft)
24.05.2013 21:25 1,5 C 96 % 1012,6 hPa 0,0 l/m 0,0 km/h (0 Bft) NO 45 0,9 C 1,0 C 0,0 km/h (0 Bft)
24.05.2013 21:30 1,5 C 96 % 1012,6 hPa 0,0 l/m 0,0 km/h (0 Bft) O 90 0,9 C 1,0 C 0,0 km/h (0 Bft)
24.05.2013 21:35 1,5 C 96 % 1012,6 hPa 0,0 l/m 0,0 km/h (0 Bft) S 180 0,9 C 1,0 C 0,0 km/h (0 Bft)
24.05.2013 21:40 1,5 C 97 % 1012,6 hPa 0,0 l/m 0,0 km/h (0 Bft) S 180 1,1 C 1,0 C 0,0 km/h (0 Bft)
24.05.2013 21:45 1,5 C 97 % 1012,8 hPa 0,0 l/m 0,2 km/h (0 Bft) S-SO 157 1,1 C 1,0 C 1,8 km/h (1 Bft)
24.05.2013 21:50 1,5 C 97 % 1012,8 hPa 0,0 l/m 0,2 km/h (0 Bft) S 180 1,1 C 1,0 C 0,0 km/h (0 Bft)
24.05.2013 21:55 1,5 C 97 % 1012,8 hPa 0,0 l/m 0,3 km/h (0 Bft) O-SO 112 1,1 C 1,0 C 0,0 km/h (0 Bft)
24.05.2013 22:00 1,5 C 97 % 1012,8 hPa 0,0 l/m 0,3 km/h (0 Bft) O 90 1,1 C 0,9 C 1,6 km/h (1 Bft)
24.05.2013 22:05 1,4 C 97 % 1012,9 hPa 0,0 l/m 0,2 km/h (0 Bft) O-SO 112 1,0 C 0,9 C 0,0 km/h (0 Bft)
24.05.2013 22:10 1,4 C 97 % 1012,9 hPa 0,0 l/m 0,5 km/h (0 Bft) NO 45 1,0 C 0,9 C 0,0 km/h (0 Bft)
24.05.2013 22:15 1,5 C 97 % 1012,9 hPa 0,0 l/m 0,3 km/h (0 Bft) S 180 1,1 C 0,9 C 0,0 km/h (0 Bft)
24.05.2013 22:20 1,5 C 97 % 1012,9 hPa 0,0 l/m 0,3 km/h (0 Bft) O-SO 112 1,1 C 1,0 C 0,0 km/h (0 Bft)
24.05.2013 22:25 1,4 C 97 % 1012,8 hPa 0,0 l/m 0,3 km/h (0 Bft) O-SO 112 1,0 C 0,9 C 0,0 km/h (0 Bft)
24.05.2013 22:30 1,4 C 97 % 1012,8 hPa 0,0 l/m 0,2 km/h (0 Bft) O-SO 112 1,0 C 0,9 C 0,0 km/h (0 Bft)
24.05.2013 22:35 1,3 C 97 % 1012,8 hPa 0,0 l/m 0,5 km/h (0 Bft) O-NO 67 0,9 C 0,8 C 1,6 km/h (1 Bft)
24.05.2013 22:40 1,4 C 97 % 1012,8 hPa 0,0 l/m 1,0 km/h (0 Bft) NO 45 1,0 C 0,8 C 0,0 km/h (0 Bft)
24.05.2013 22:45 1,4 C 97 % 1012,8 hPa 0,0 l/m 0,6 km/h (0 Bft) NO 45 1,0 C 0,8 C 0,0 km/h (0 Bft)
24.05.2013 22:50 1,4 C 97 % 1012,8 hPa 0,0 l/m 0,2 km/h (0 Bft) O-NO 67 1,0 C 0,8 C 1,9 km/h (1 Bft)
24.05.2013 22:55 1,3 C 97 % 1012,8 hPa 0,0 l/m 0,6 km/h (0 Bft) O 90 0,9 C 0,8 C 0,0 km/h (0 Bft)
24.05.2013 23:00 1,3 C 97 % 1012,8 hPa 0,0 l/m 0,6 km/h (0 Bft) O 90 0,9 C 0,8 C 0,0 km/h (0 Bft)
24.05.2013 23:05 1,3 C 97 % 1012,9 hPa 0,0 l/m 0,2 km/h (0 Bft) NO 45 0,9 C 0,8 C 0,0 km/h (0 Bft)
24.05.2013 23:10 1,3 C 97 % 1012,9 hPa 0,0 l/m 0,2 km/h (0 Bft) S-SW 202 0,9 C 0,8 C 0,0 km/h (0 Bft)
24.05.2013 23:15 1,3 C 97 % 1012,9 hPa 0,0 l/m 0,2 km/h (0 Bft) S-SW 202 0,9 C 0,8 C 0,0 km/h (0 Bft)
24.05.2013 23:20 1,3 C 97 % 1012,9 hPa 0,0 l/m 0,2 km/h (0 Bft) W-SW 247 0,9 C 0,8 C 0,0 km/h (0 Bft)
24.05.2013 23:25 1,3 C 97 % 1012,7 hPa 0,0 l/m 0,2 km/h (0 Bft) S-SO 157 0,9 C 0,8 C 0,0 km/h (0 Bft)
24.05.2013 23:30 1,2 C 97 % 1012,7 hPa 0,0 l/m 0,0 km/h (0 Bft) S-SO 157 0,8 C 0,7 C 0,0 km/h (0 Bft)
24.05.2013 23:35 1,2 C 97 % 1012,7 hPa 0,0 l/m 0,0 km/h (0 Bft) S-SO 157 0,8 C 0,6 C 0,0 km/h (0 Bft)
24.05.2013 23:40 1,1 C 97 % 1012,7 hPa 0,0 l/m 0,0 km/h (0 Bft) W 270 0,7 C 0,4 C 0,0 km/h (0 Bft)
24.05.2013 23:45 1,1 C 97 % 1012,8 hPa 0,0 l/m 0,0 km/h (0 Bft) W-SW 247 0,7 C 0,5 C 0,0 km/h (0 Bft)
24.05.2013 23:50 1,2 C 97 % 1012,8 hPa 0,0 l/m 0,0 km/h (0 Bft) S 180 0,8 C 0,6 C 0,0 km/h (0 Bft)
24.05.2013 23:55 1,2 C 97 % 1012,8 hPa 0,0 l/m 0,0 km/h (0 Bft) S-SW 202 0,8 C 0,7 C 0,0 km/h (0 Bft)
_ Min-Zeit 18:35 14:30 05:00 - 23:55 - - 18:25 00:10 23:55
Minimum _ 1,0 C 68 % 1009,9 hPa - 0,0 km/h (0 Bft) - - -0,3 C -0,7 C 0,0 km/h (0 Bft)
_ Max-Zeit 14:35 23:55 20:40 20:40 15:00 - - 14:25 14:30 02:30
Maximum _ 8,3 C 97 % 1013,1 hPa 0,7 l/m 6,9 km/h
W-SW (2 Bft)
- - 4,3 C 10,5 C 15,8 km/h
S (3 Bft)
Durchschnitt _ 3,1 C 91 % 1012,0 hPa #6,9 l/m 2,5 km/h (1 Bft) S - 1,7 C 2,7 C 3,1 km/h (1 Bft)